Location: Tom
(33.0437°N, 96.9452°W)
Time: 18:09:17
(UTC-06:00)

ISS - Visible Passes

Search period start: 23 January 2019 00:00
Search period end: 02 February 2019 00:00
Orbit: 404 x 410 km, 51.6° (Epoch: 24 January)

Date Brightness Start Highest point End Pass type
(mag) Time Alt. Az. Time Alt. Az. Time Alt. Az.
23 Jan -1.4 19:21:20 10° WNW 19:23:34 17° NNW 19:24:45 14° N visible
24 Jan -2.1 18:29:09 10° W 18:32:03 28° NW 18:34:59 10° NNE visible
26 Jan -1.2 18:24:21 10° WNW 18:26:04 13° NNW 18:27:48 10° N visible
